Weather Roundup
Issued by NWS Springfield, MO

Home | Current Version | Previous Version | Text Only | Print | Product List | Glossary On
Versions: 1 2 3 4 5 6 7 8 9 10 11 12 13 14 15 16 17 18 19 20 21 22 23 24 25 26 27 28 29 30 31 32 33 34 35 36 37 38 39 40 41 42 43 44 45 46 47 48 49 50
000
NZUS99 KSGF 241707
HRRSGF

HOURLY WEATHER
NATIONAL WEATHER SERVICE SPRINGFIELD MO
1100 AM CST FRI NOV 24 2017

......SGF CWA......

CITY           SKY/WX    TMP DP  RH WIND       PRES   REMARKS
SPRINGFIELD    SUNNY     64  37  36 S14       29.82F
JOPLIN         SUNNY     68  35  29 S18G28    29.80F
WEST PLAINS    SUNNY     63  32  31 S9        29.89F
ROLLA          SUNNY     65  34  31 SW18      29.81F
OSAGE BEACH    SUNNY     68  35  29 S15G26    29.78F
BRANSON        MOSUNNY   66  32  28 SW10G17   29.87F

......SURROUNDING SGF CWA......

CITY           SKY/WX    TMP DP  RH WIND       PRES   REMARKS
CHANUTE        SUNNY     63  36  36 S17       29.76F
PARSONS        SUNNY     63  36  36 S12       29.78F
COFFEYVILLE    SUNNY     63  36  36 S17       29.78F
EMPORIA        CLOUDY    67  38  34 SW12      29.70F
GROVE OK       SUNNY     68  37  32 S13G20    29.84F
ROGERS AR      MOSUNNY   64  34  32 S15       29.87F
SILOAM SPRINGS SUNNY     64  35  34 S14       29.88F
HARRISON AR    SUNNY     64  33  31 SE7       29.88F
NEAR YELLVILLE SUNNY     57  36  45 VRB3      29.89F

......KANSAS AND MISSOURI......

CITY           SKY/WX    TMP DP  RH WIND       PRES   REMARKS
KANSAS CTY INT PTSUNNY   63  37  38 SW24G32   29.62F
DOWNTOWN KC    SUNNY     67  37  33 SW18G25   29.64F
COLUMBIA       SUNNY     65  36  34 S17       29.73F
SEDALIA        SUNNY     65  37  35 SW18G29   29.72F
ST JOSEPH      SUNNY     66  38  35 SW17      29.60F
ST LOUIS       MOSUNNY   61  34  36 S8        29.79F
SPIRIT OF STL  SUNNY     65  35  33 SW8       29.77F
KIRKSVILLE     SUNNY     63  37  38 SW21G29   29.61F
WICHITA        CLOUDY    62  40  44 S12       29.73F
TOPEKA         SUNNY     64  38  38 SW15G23   29.65F
OLATHE         SUNNY     64  37  36 S16G25    29.67F

......TENNESSEE......

CITY           SKY/WX    TMP DP  RH WIND       PRES   REMARKS
MEMPHIS        PTSUNNY   57  32  38 S9G17     29.98F
NASHVILLE      MOSUNNY   58  19  22 S9        30.00F

......ARKANSAS.......

CITY           SKY/WX    TMP DP  RH WIND       PRES   REMARKS
FAYETTEVILLE   SUNNY     67  34  29 SW10G20   29.89F
FT SMITH       SUNNY     59  38  45 NE6       29.92F
LITTLE ROCK    PTSUNNY   61  33  35 SW9       29.97F

......OKLAHOMA.......

CITY           SKY/WX    TMP DP  RH WIND       PRES   REMARKS
TULSA          PTSUNNY   63  35  35 S14       29.83F
PONCA CITY     CLOUDY    69  37  30 SW8       29.76F
MCALESTER      MOSUNNY   67  35  30 S8        29.90F
OKLAHOMA CITY  MOSUNNY   68  37  32 S14       29.81F

......IOWA............

CITY           SKY/WX    TMP DP  RH WIND       PRES   REMARKS
DES MOINES     MOSUNNY   63  38  39 SW22      29.47F
QUAD CITIES    SUNNY     61  36  39 S16G29    29.55F

......ILLINOIS........

CITY           SKY/WX    TMP DP  RH WIND       PRES   REMARKS
QUINCY         SUNNY     64  36  35 SW24G31   29.67F
CHICAGO        MOSUNNY   53  33  46 S18G26    29.64F




USA.gov is the U.S. government's official web portal to all federal, state and local government web resources and services.